CAPE
5 10 5 123 123 174 128 137 129 129 133 103 73 73 11 6 42 42 17 127 127 203 87 37 37 39 0 nan nan nan nan nan nan nan nan nan nan nan nan nan nan nan nan nan nan nan nan nan nan nan nan nan nan nan nan nan nan nan nan nan nan nan nan nan nan nan nan nan nan nan nan nan nan nan nan nan nan nan nan nan nan nan nan nan nan nan
nan nan 7 130 130 249 164 159 149 149 139 104 61 61 20 39 66 66 67 131 131 130 49 37 37 49 46 0 nan nan 1 2 1 1 nan nan nan nan nan nan nan nan nan nan nan nan nan nan nan nan nan nan nan nan nan nan nan nan nan nan nan nan nan nan nan nan nan nan nan nan nan nan nan nan nan nan nan nan nan nan nan nan nan nan nan nan
nan 0 11 137 137 282 214 175 160 160 192 103 54 54 36 60 106 106 85 112 112 97 51 47 47 33 22 1 0 0 2 5 4 4 0 nan nan nan nan nan nan nan nan nan nan nan nan nan nan nan nan nan nan nan nan nan nan nan nan nan nan nan nan nan nan nan nan nan nan nan nan nan nan nan nan nan nan nan nan nan nan nan nan nan nan nan
nan 1 14 106 106 283 284 202 272 272 226 130 56 56 41 66 166 166 195 169 169 97 78 61 61 43 29 10 2 2 3 7 8 8 nan nan nan nan nan nan nan nan nan nan nan nan nan nan nan nan nan nan nan nan nan nan nan nan nan nan nan nan nan nan nan nan nan nan nan nan nan nan nan nan nan nan nan nan nan nan nan nan nan nan nan nan
nan 0 19 87 87 256 333 279 264 264 233 167 76 76 49 63 139 139 265 236 236 113 79 75 75 55 47 34 9 9 8 9 6 6 0 nan nan nan nan nan nan nan nan nan nan nan nan nan nan nan nan nan nan nan nan nan nan nan nan nan nan nan nan nan nan nan nan nan nan nan nan nan nan nan nan nan nan nan nan nan nan nan nan nan nan nan
nan nan 24 89 89 202 253 211 181 181 179 121 107 107 79 63 112 112 260 214 214 82 64 60 60 52 43 39 25 25 17 14 8 8 0 nan nan nan nan nan nan nan nan nan nan nan nan nan nan nan nan 0 nan nan nan nan nan nan nan nan nan nan nan nan nan nan nan nan nan nan nan nan nan nan nan nan nan nan nan nan nan nan nan nan nan nan
8 0 39 124 124 222 203 122 96 96 137 53 50 50 81 98 157 157 270 141 141 51 36 33 33 35 39 32 33 33 29 22 13 13 4 nan nan nan nan nan nan nan nan nan nan nan nan nan nan nan nan 1 3 3 2 0 0 nan nan nan nan nan nan nan nan nan nan nan nan nan nan nan nan nan nan nan nan nan nan nan nan nan nan nan nan nan
23 4 12 124 124 145 111 98 30 30 3 6 4 4 38 53 103 103 56 3 3 11 20 31 31 27 25 47 52 52 60 62 45 45 20 7 1 1 0 nan nan nan nan nan nan nan nan nan nan nan nan nan 3 3 6 4 4 nan nan nan nan nan nan nan nan nan nan nan nan nan nan nan nan nan nan nan nan nan nan nan nan nan nan nan nan nan
29 36 50 120 120 144 94 69 11 11 7 6 9 9 12 76 90 90 16 0 0 7 22 32 32 31 25 34 39 39 35 30 29 29 25 10 5 5 2 0 0 nan nan nan nan nan nan nan nan nan nan nan nan nan nan nan nan nan nan nan nan nan nan nan nan nan nan nan nan nan nan nan nan nan nan nan nan nan nan nan nan nan nan nan nan nan
76 68 67 107 107 193 124 45 3 3 8 14 14 14 77 122 54 54 4 4 4 9 17 31 31 24 16 20 25 25 22 19 9 9 8 1 2 2 1 0 0 1 nan nan nan nan nan nan nan nan nan nan nan nan nan nan nan nan nan nan nan nan nan nan nan nan nan nan nan nan nan nan nan nan nan nan nan nan nan nan nan nan nan nan nan nan
151 181 96 157 157 226 154 26 nan nan 0 14 11 11 21 70 29 29 2 2 2 9 26 34 34 24 22 19 21 21 12 13 23 23 18 2 0 0 1 1 1 1 1 0 0 nan nan nan nan nan nan nan nan nan nan nan nan nan nan nan nan nan nan nan nan nan nan nan nan nan nan nan nan nan nan nan nan nan nan nan nan nan nan nan nan nan
181 260 122 154 154 159 85 11 0 0 0 8 8 8 6 26 22 22 0 0 0 13 47 52 52 34 18 34 30 30 6 8 17 17 23 11 5 5 2 4 4 5 5 4 4 1 0 nan nan nan nan nan nan nan nan nan nan nan nan nan nan nan nan nan nan nan nan nan nan nan nan nan nan nan nan nan nan nan nan nan nan nan nan nan nan nan
192 202 125 127 127 89 34 3 2 2 3 10 10 10 19 22 10 10 nan nan nan 16 40 33 33 4 nan nan 14 14 11 2 6 6 10 9 4 4 2 1 1 2 3 4 4 5 3 0 0 nan nan nan nan nan nan nan nan nan nan nan nan nan nan nan nan nan nan nan nan nan nan nan nan nan nan nan nan nan nan nan nan nan nan nan nan nan
150 202 119 82 82 38 14 3 3 3 8 22 23 23 12 8 18 18 10 7 7 14 18 3 3 nan nan nan nan nan 30 4 6 6 9 7 2 2 0 nan nan nan nan nan nan 2 4 0 0 1 nan nan nan nan nan nan nan nan nan nan nan nan nan nan nan nan nan nan nan nan nan nan nan nan nan nan nan nan nan nan nan nan nan nan nan nan
114 184 71 51 51 24 3 3 5 5 15 24 58 58 7 1 40 40 43 27 27 10 4 3 3 2 0 0 nan nan 53 4 5 5 6 2 2 2 nan nan nan nan nan 0 0 1 1 nan nan 1 1 2 0 0 nan nan nan nan nan nan nan nan nan nan nan nan nan nan nan nan nan nan nan nan nan nan nan nan nan nan nan nan nan nan nan nan
78 151 42 39 39 34 17 5 3 3 3 13 34 34 3 1 44 44 60 22 22 6 3 4 4 5 0 1 1 1 10 3 nan nan nan nan nan nan 4 1 1 3 3 3 3 2 0 0 0 0 3 1 nan nan nan nan nan nan nan nan nan nan nan nan nan nan nan nan nan nan nan nan nan nan nan nan nan nan nan nan nan nan nan nan nan nan
50 103 51 24 24 0 nan nan nan nan 0 4 21 21 nan 12 82 82 59 12 12 5 6 4 4 8 6 0 0 0 nan 3 nan nan nan nan nan nan 0 4 4 nan 0 1 1 2 3 0 0 0 3 0 nan nan nan nan nan nan nan nan nan nan nan nan nan nan nan nan nan nan nan nan nan nan nan nan nan nan nan nan nan nan nan nan nan nan
4 5 28 2 2 1 1 1 1 1 2 2 5 5 9 77 187 187 64 13 13 7 7 9 9 5 14 4 nan nan nan 6 nan nan nan nan nan nan nan 4 4 nan nan 1 1 3 7 6 6 3 1 nan nan nan nan nan nan nan nan nan nan nan nan nan nan nan nan nan nan nan nan nan nan nan nan nan nan nan nan nan nan nan nan nan nan nan
3 4 3 3 3 2 2 1 1 1 1 1 1 1 5 32 163 163 150 43 43 15 16 23 23 12 12 14 nan nan 1 3 nan nan nan nan nan nan nan 5 5 nan 0 2 2 5 13 17 17 3 nan nan nan nan nan nan nan nan nan nan nan nan nan nan nan nan nan nan nan nan nan nan nan nan nan nan nan nan nan nan nan nan nan nan nan nan
2 3 3 3 3 3 2 2 2 2 2 1 nan nan 1 8 76 76 148 213 213 56 31 43 43 43 23 0 0 0 1 1 nan nan nan nan nan nan nan 5 5 0 3 5 5 10 12 15 15 4 nan 0 nan nan nan nan nan nan nan nan nan nan nan nan nan nan nan nan nan nan nan nan nan nan nan nan nan nan nan nan nan nan nan nan nan nan
2 2 3 4 4 4 3 3 3 3 2 1 0 0 2 3 5 5 56 201 201 109 157 76 76 50 32 nan 0 0 0 4 nan nan nan nan 0 0 nan 4 4 1 0 nan nan 13 13 11 11 9 2 1 nan nan nan nan nan nan nan nan nan nan nan nan nan nan nan nan nan nan nan nan nan nan nan nan nan nan nan nan nan nan nan nan nan nan
3 3 5 7 7 5 6 3 4 4 3 2 1 1 0 3 1 1 4 52 52 102 15 nan nan nan nan 0 1 1 1 2 nan nan 0 0 1 1 0 1 1 nan nan nan nan nan 21 12 12 9 2 0 nan nan nan nan nan nan nan nan nan nan nan nan nan nan nan nan nan nan nan nan nan nan nan nan nan nan nan nan nan nan nan nan nan nan
5 5 7 7 7 8 7 5 5 5 4 3 2 2 1 nan 40 40 8 9 9 0 2 1 1 1 0 1 1 1 0 nan nan nan nan 1 1 1 1 0 0 nan nan nan nan nan 7 7 7 2 0 nan nan nan nan nan nan nan nan nan nan nan nan nan nan nan nan nan nan nan nan nan nan nan nan nan nan nan nan nan nan nan nan nan nan nan
7 6 6 8 8 8 10 7 5 5 3 3 3 3 2 1 1 1 29 1 1 1 1 0 0 0 1 1 0 0 0 nan nan nan nan 2 2 2 1 nan nan nan nan nan nan nan nan nan nan 0 0 nan nan nan nan nan nan nan nan nan nan nan nan nan nan nan nan nan nan nan nan nan nan nan nan nan nan nan nan nan nan nan nan nan nan nan
5 6 5 8 8 11 11 10 8 8 3 2 3 3 3 2 2 2 1 0 0 0 0 nan nan nan 0 1 0 0 0 nan nan nan nan 2 3 3 1 nan nan nan nan nan nan nan nan nan nan nan 0 nan nan nan nan nan nan nan nan nan nan nan nan nan nan nan nan nan nan nan nan nan nan nan nan nan nan nan nan nan nan nan nan nan nan nan
16 11 9 15 15 23 24 25 20 20 10 3 2 2 2 2 1 1 0 0 0 0 0 nan nan 0 0 0 0 0 1 0 nan nan nan nan 0 0 0 nan nan nan 0 0 0 nan nan nan nan nan nan 0 nan nan nan nan nan nan nan nan nan nan nan nan nan nan nan nan nan nan nan nan nan nan nan nan nan nan nan nan nan nan nan nan nan nan
30 30 33 31 31 27 24 24 22 22 20 11 3 3 2 3 1 1 nan 0 0 0 0 0 0 1 1 1 1 1 1 0 nan nan nan nan nan nan nan nan nan 0 0 0 0 0 nan nan nan nan nan nan nan nan nan nan nan nan nan nan nan nan nan nan nan nan nan nan nan nan nan nan nan nan nan nan nan nan nan nan nan nan nan nan nan nan
27 26 24 25 25 24 23 21 21 21 19 14 7 7 2 1 nan nan 0 0 0 0 nan 0 0 0 0 0 1 1 1 0 0 0 nan nan nan nan nan nan nan nan nan 0 0 1 1 nan nan nan nan nan nan nan nan nan nan nan nan nan nan nan nan nan nan nan nan nan nan nan nan nan nan nan nan nan nan nan nan nan nan nan nan nan nan nan
17 18 20 22 22 21 19 18 19 19 23 16 9 9 2 0 0 0 0 0 0 nan 0 1 1 0 nan 0 0 0 1 1 1 1 0 nan nan nan 0 0 0 nan nan nan nan 0 nan 0 0 nan nan nan 0 0 0 nan nan nan nan nan nan nan nan nan nan nan nan nan nan nan nan nan nan nan nan nan nan nan nan nan nan nan nan nan nan nan
2 5 8 14 14 15 12 6 16 16 22 19 12 12 6 1 1 1 2 1 1 0 1 0 0 0 nan 0 0 0 1 1 1 1 0 nan nan nan 0 0 0 nan nan nan nan nan nan 0 0 0 1 nan nan nan 0 1 1 1 2 1 1 nan nan nan nan nan nan nan nan nan nan nan nan nan nan nan nan nan nan nan nan nan nan nan nan nan
nan nan nan 1 1 2 1 nan 4 4 13 15 11 11 7 3 2 2 2 2 2 0 0 nan nan nan nan nan 0 0 1 2 2 2 1 nan 0 0 0 0 0 0 nan nan nan nan nan 0 0 1 0 nan nan nan nan nan nan 1 2 1 1 1 0 nan nan nan nan nan nan nan nan nan nan nan nan nan nan nan nan nan nan nan nan nan nan nan
nan nan nan 0 0 0 0 nan nan nan nan nan 0 0 2 3 3 3 1 1 1 1 nan nan nan nan nan nan 0 0 1 2 4 4 2 nan nan nan 1 0 0 nan nan nan nan nan nan nan nan 0 1 3 2 2 0 1 1 0 0 nan nan nan nan nan nan nan nan nan nan nan nan nan nan nan nan nan nan nan nan nan nan nan nan nan nan nan
0 0 nan 0 0 0 0 0 0 0 1 0 0 0 nan 1 3 3 1 0 0 0 nan nan nan nan nan nan nan nan nan 1 4 4 3 0 nan nan 0 nan nan nan nan nan nan nan nan nan nan 1 0 3 5 5 6 5 5 4 6 8 8 6 2 nan nan nan nan nan nan nan nan nan nan nan nan nan nan nan nan nan nan nan nan nan nan nan
nan 0 0 0 0 nan 0 0 0 0 0 0 2 2 1 1 1 1 1 0 0 nan nan nan nan nan nan nan nan nan nan nan 3 3 2 0 nan nan nan nan nan nan nan nan nan nan nan nan nan nan nan 1 4 4 10 9 9 8 9 11 11 8 6 1 1 nan nan nan nan nan nan nan nan nan nan nan nan nan nan nan nan nan nan nan nan nan
nan nan nan nan nan nan 0 0 0 0 1 1 1 1 1 1 0 0 1 0 0 0 nan nan nan nan nan nan nan nan nan nan 1 1 1 nan nan nan nan nan nan nan nan nan nan nan nan nan nan nan nan nan 0 0 1 7 7 11 8 4 4 3 3 2 2 0 nan nan nan nan nan nan nan nan nan nan nan nan nan nan nan nan nan nan nan nan
nan nan nan nan nan 0 0 0 0 0 1 0 0 0 1 1 1 1 0 0 0 1 2 0 0 0 nan nan nan nan nan nan 0 0 0 0 nan nan nan nan nan nan nan nan nan nan nan nan nan nan nan nan nan nan 0 3 3 3 1 1 1 1 1 0 0 nan nan nan nan nan nan nan nan nan nan nan nan nan nan nan nan nan nan nan nan nan
nan nan nan nan nan nan 0 nan 0 0 0 0 1 1 2 1 1 1 0 0 0 0 1 4 4 3 5 0 0 0 0 nan nan nan nan nan nan nan nan nan nan nan nan nan nan nan nan nan nan nan nan nan nan nan nan 0 0 0 0 0 0 0 0 nan nan nan nan nan nan nan nan nan nan nan nan nan nan nan nan nan nan nan nan nan nan nan
nan nan nan nan nan nan nan nan 0 0 0 0 1 1 2 2 2 2 1 1 1 1 0 nan nan 0 8 6 1 1 0 nan nan nan nan nan nan nan nan 0 0 nan nan nan nan nan nan nan nan nan nan nan nan nan nan nan nan nan 0 0 0 nan nan nan nan nan nan nan nan nan nan nan nan nan nan nan nan nan nan nan nan nan nan nan nan nan
nan nan nan nan nan nan nan nan nan nan 0 1 2 2 3 4 4 4 2 1 1 1 0 0 0 nan 1 1 3 3 1 nan nan nan nan nan nan nan nan nan nan 0 nan nan nan nan nan nan nan nan nan nan nan nan nan nan nan nan nan nan nan nan nan nan nan nan nan nan nan nan nan nan nan nan nan nan nan nan nan nan nan nan nan nan nan nan
nan nan nan nan nan nan nan nan nan nan nan 0 1 1 2 3 2 2 1 2 2 0 0 nan nan nan 0 2 2 2 1 nan nan nan nan nan nan nan nan nan nan nan nan nan nan nan nan nan nan nan nan nan nan nan nan nan nan nan nan nan nan nan nan nan nan nan nan nan nan nan nan nan nan nan nan nan nan nan nan nan nan nan nan nan nan nan
nan nan nan nan nan nan nan nan nan nan nan nan nan nan 0 1 0 0 0 0 0 0 nan nan nan nan nan nan nan nan nan nan nan nan nan nan nan nan nan nan nan nan nan nan nan nan nan nan nan nan nan nan nan nan nan nan nan 0 nan nan nan nan 0 nan nan nan nan nan nan nan nan nan nan nan nan nan nan nan nan nan nan nan nan nan nan nan
nan nan nan nan nan nan nan nan nan nan nan nan nan nan nan nan nan nan nan nan nan nan nan nan nan nan nan nan nan nan nan nan nan nan nan nan nan nan nan nan nan nan nan nan nan nan nan nan nan nan nan nan nan nan nan 0 0 0 nan nan nan 0 0 nan nan nan nan nan nan nan nan nan nan nan nan nan nan nan nan nan nan nan nan nan nan nan
nan nan nan nan nan nan nan nan nan nan nan nan nan nan nan nan nan nan nan nan nan nan nan nan nan nan nan nan nan nan nan nan 0 0 nan nan nan nan nan nan nan nan nan nan nan nan nan nan nan nan nan 0 nan nan nan nan nan nan nan nan nan nan nan nan nan nan nan nan nan nan nan nan nan nan nan nan nan nan nan nan nan nan nan nan nan nan
nan nan nan nan nan nan nan nan nan nan nan nan nan nan nan nan nan nan nan nan nan nan nan nan nan nan nan nan nan nan nan nan nan nan nan nan nan nan nan nan nan nan nan nan nan nan nan nan nan nan nan nan nan nan nan nan nan nan nan nan nan nan nan nan nan nan nan nan nan nan nan nan nan nan nan nan nan nan nan nan nan nan nan nan nan nan
nan nan nan nan nan nan nan nan nan nan nan nan nan nan nan nan nan nan nan nan nan nan nan nan nan nan nan nan nan nan nan nan nan nan nan nan nan nan nan nan nan nan nan nan nan nan nan nan nan nan nan nan nan nan nan nan nan nan nan nan nan nan nan nan nan nan nan nan nan nan nan nan nan nan nan nan nan nan nan nan nan nan nan nan nan nan
nan nan nan nan nan nan nan nan nan nan nan nan nan nan nan nan nan nan nan nan nan nan nan nan nan nan nan nan nan nan nan nan nan nan nan nan nan nan nan nan nan nan nan nan nan nan nan nan nan nan nan nan nan nan nan nan nan nan nan nan nan nan nan nan nan nan nan nan nan nan nan nan nan nan nan nan nan nan nan nan nan nan nan nan nan nan
nan nan nan nan nan nan nan nan nan nan nan nan nan nan nan nan nan nan nan nan nan nan nan nan nan nan nan nan nan nan nan nan nan nan nan nan nan nan nan nan nan nan nan nan nan nan nan nan nan nan nan nan nan nan nan nan nan nan nan nan nan nan nan nan nan nan nan nan nan nan nan nan nan nan nan nan nan nan nan nan nan nan nan nan nan nan
nan nan nan nan nan nan nan nan nan nan nan nan nan nan nan nan nan nan nan nan nan nan nan nan nan nan nan nan nan nan nan nan nan nan nan nan nan nan nan nan nan nan nan nan nan nan nan nan nan nan nan nan nan nan nan nan nan nan nan nan nan nan nan nan nan nan nan nan nan nan nan nan nan nan nan nan nan nan nan nan nan nan nan nan nan nan
nan nan nan nan nan nan nan nan nan nan nan nan nan nan nan nan nan nan nan nan nan nan nan nan nan nan nan nan nan nan nan nan nan nan nan nan nan nan nan nan nan nan nan nan nan nan nan nan nan nan nan nan nan nan nan nan nan nan nan nan nan nan nan nan nan nan nan nan nan nan nan nan nan nan nan nan nan nan nan nan nan nan nan nan nan nan
nan nan nan nan nan nan nan nan nan nan nan nan nan nan nan nan nan nan nan nan nan nan nan nan nan nan nan nan nan nan nan nan nan nan nan nan nan nan nan nan nan nan nan nan nan nan nan nan nan 0 0 nan nan nan nan nan nan nan nan nan nan nan nan nan nan nan nan nan nan nan nan nan nan nan nan nan nan nan nan nan nan nan nan nan nan nan
nan nan nan nan nan nan nan nan nan nan nan nan nan nan nan nan nan nan nan nan nan nan nan nan nan nan nan nan nan nan nan nan nan nan nan nan nan nan nan nan nan nan nan nan nan nan nan nan nan nan 1 4 0 0 nan nan nan nan nan nan nan nan nan nan nan nan nan nan nan nan nan nan nan nan nan nan nan nan nan nan nan nan nan nan nan nan
CIN
-34 -43 -65 -34 -34 -28 0 0 0 0 -0 -0 0 0 -0 -1 -0 -0 -2 -1 -1 0 0 0 0 0 -9 nan nan nan nan nan nan nan nan nan nan nan nan nan nan nan nan nan nan nan nan nan nan nan nan nan nan nan nan nan nan nan nan nan nan nan nan nan nan nan nan nan nan nan nan nan nan nan nan nan nan nan nan nan nan nan nan nan nan nan
nan nan -70 -31 -31 -11 0 0 0 0 -0 -0 0 0 0 0 -0 -0 -0 -1 -1 -1 0 0 0 0 0 -23 nan nan -17 -18 -20 -20 nan nan nan nan nan nan nan nan nan nan nan nan nan nan nan nan nan nan nan nan nan nan nan nan nan nan nan nan nan nan nan nan nan nan nan nan nan nan nan nan nan nan nan nan nan nan nan nan nan nan nan nan
nan -47 -54 -23 -23 0 0 0 0 0 0 -0 0 0 0 0 -0 -0 0 -3 -3 -4 -1 0 0 0 0 -25 -40 -40 -43 -41 -46 -46 -56 nan nan nan nan nan nan nan nan nan nan nan nan nan nan nan nan nan nan nan nan nan nan nan nan nan nan nan nan nan nan nan nan nan nan nan nan nan nan nan nan nan nan nan nan nan nan nan nan nan nan nan
nan -16 -31 -22 -22 0 0 0 0 0 -1 0 0 0 -29 0 0 0 -0 -1 -1 -2 -1 -0 -0 0 0 -0 -37 -37 -50 -52 -51 -51 nan nan nan nan nan nan nan nan nan nan nan nan nan nan nan nan nan nan nan nan nan nan nan nan nan nan nan nan nan nan nan nan nan nan nan nan nan nan nan nan nan nan nan nan nan nan nan nan nan nan nan nan
nan -5 -14 -21 -21 0 0 0 0 0 -1 -0 -1 -1 0 -13 0 0 -0 -1 -1 -1 -0 -0 -0 -0 0 0 -1 -1 -34 -44 -47 -47 -57 nan nan nan nan nan nan nan nan nan nan nan nan nan nan nan nan nan nan nan nan nan nan nan nan nan nan nan nan nan nan nan nan nan nan nan nan nan nan nan nan nan nan nan nan nan nan nan nan nan nan nan
nan nan -3 -15 -15 -1 -4 0 0 0 0 -1 -6 -6 -12 -11 -5 -5 -0 0 0 -0 0 -0 -0 -0 0 0 -0 -0 -0 -29 -32 -32 -45 nan nan nan nan nan nan nan nan nan nan nan nan nan nan nan nan -42 nan nan nan nan nan nan nan nan nan nan nan nan nan nan nan nan nan nan nan nan nan nan nan nan nan nan nan nan nan nan nan nan nan nan
-1 -1 0 -1 -1 0 -1 0 -0 -0 -0 -1 -3 -3 -10 -15 -12 -12 -1 0 0 0 0 -0 -0 -1 -3 -12 -2 -2 -0 -2 -2 -2 -30 nan nan nan nan nan nan nan nan nan nan nan nan nan nan nan nan -31 -39 -39 -55 -69 -69 nan nan nan nan nan nan nan nan nan nan nan nan nan nan nan nan nan nan nan nan nan nan nan nan nan nan nan nan nan
-9 -12 -5 0 0 0 0 -0 -1 -1 -1 -1 -1 -1 -0 -0 -0 -0 0 0 0 0 0 0 0 0 0 0 0 0 0 0 0 0 0 0 -31 -31 -43 nan nan nan nan nan nan nan nan nan nan nan nan nan -46 -46 -48 -57 -57 nan nan nan nan nan nan nan nan nan nan nan nan nan nan nan nan nan nan nan nan nan nan nan nan nan nan nan nan nan
-3 -0 0 0 0 0 0 -0 -0 -0 -1 -1 -2 -2 -2 -0 0 0 0 -0 -0 -0 -0 0 0 0 0 -3 0 0 -1 -2 -3 -3 0 0 0 0 0 0 0 nan nan nan nan nan nan nan nan nan nan nan nan nan nan nan nan nan nan nan nan nan nan nan nan nan nan nan nan nan nan nan nan nan nan nan nan nan nan nan nan nan nan nan nan nan
-1 0 0 0 0 0 0 -0 -0 -0 -0 -1 -3 -3 -2 0 0 0 0 0 0 -2 -1 0 0 0 0 -3 0 0 0 -0 -19 -19 -14 -11 -0 -0 -0 -1 -1 0 nan nan nan nan nan nan nan nan nan nan nan nan nan nan nan nan nan nan nan nan nan nan nan nan nan nan nan nan nan nan nan nan nan nan nan nan nan nan nan nan nan nan nan nan
-0 -0 0 0 0 -0 -1 -1 nan nan -0 -0 -1 -1 -4 0 0 0 0 0 0 -0 0 0 0 0 0 0 0 0 0 0 0 0 -7 -10 -6 -6 -6 -4 -4 -5 -3 -4 -4 nan nan nan nan nan nan nan nan nan nan nan nan nan nan nan nan nan nan nan nan nan nan nan nan nan nan nan nan nan nan nan nan nan nan nan nan nan nan nan nan nan
-0 0 0 0 0 -0 -1 -1 -2 -2 -1 -0 -0 -0 -2 0 0 0 0 0 0 -0 0 -1 -1 -4 -15 -11 0 0 0 0 0 0 0 0 0 0 0 0 0 0 -0 -1 -1 -3 -4 nan nan nan nan nan nan nan nan nan nan nan nan nan nan nan nan nan nan nan nan nan nan nan nan nan nan nan nan nan nan nan nan nan nan nan nan nan nan nan
-0 0 0 0 0 -0 -0 -0 -1 -1 -0 -0 -1 -1 -1 -0 0 0 nan nan nan -0 0 -3 -3 -26 nan nan -10 -10 0 -0 0 0 0 0 0 0 0 0 0 0 0 0 0 0 -0 -3 -3 nan nan nan nan nan nan nan nan nan nan nan nan nan nan nan nan nan nan nan nan nan nan nan nan nan nan nan nan nan nan nan nan nan nan nan nan nan
0 0 0 0 0 -2 -0 -1 -1 -1 -0 -1 -2 -2 0 -0 -4 -4 -5 -3 -3 -1 -0 0 0 nan nan nan nan nan 0 0 0 0 0 0 0 0 0 nan nan nan nan nan nan 0 -0 -0 -0 -0 nan nan nan nan nan nan nan nan nan nan nan nan nan nan nan nan nan nan nan nan nan nan nan nan nan nan nan nan nan nan nan nan nan nan nan nan
0 0 0 -0 -0 -1 -1 -1 -2 -2 -1 -2 -2 -2 -2 -7 -12 -12 -3 0 0 -0 0 0 0 0 0 0 nan nan 0 0 0 0 -1 -0 0 0 nan nan nan nan nan 0 0 0 0 nan nan 0 0 -0 -1 -1 nan nan nan nan nan nan nan nan nan nan nan nan nan nan nan nan nan nan nan nan nan nan nan nan nan nan nan nan nan nan nan nan
0 0 -1 -0 -0 -0 -1 -2 -2 -2 -2 -0 -1 -1 -6 -16 -14 -14 -1 0 0 0 0 0 0 0 0 0 0 0 -10 0 nan nan nan nan nan nan 0 0 0 0 0 0 0 0 0 0 0 0 0 -3 nan nan nan nan nan nan nan nan nan nan nan nan nan nan nan nan nan nan nan nan nan nan nan nan nan nan nan nan nan nan nan nan nan nan
0 0 -0 -0 -0 -0 nan nan nan nan -0 0 -0 -0 nan -14 -7 -7 -0 0 0 0 0 0 0 0 0 -0 0 0 nan 0 nan nan nan nan nan nan -7 -0 -0 nan -2 -0 -0 0 0 0 0 0 0 -9 nan nan nan nan nan nan nan nan nan nan nan nan nan nan nan nan nan nan nan nan nan nan nan nan nan nan nan nan nan nan nan nan nan nan
0 0 0 0 0 0 0 0 0 0 0 -0 -1 -1 -6 -5 -3 -3 -2 -0 -0 0 0 0 0 0 0 -1 nan nan nan 0 nan nan nan nan nan nan nan 0 0 nan nan 0 0 0 0 0 0 0 -0 nan nan nan nan nan nan nan nan nan nan nan nan nan nan nan nan nan nan nan nan nan nan nan nan nan nan nan nan nan nan nan nan nan nan nan
0 0 0 0 0 0 0 0 0 0 0 0 -1 -1 -1 -1 -1 -1 -3 -0 -0 0 0 0 0 0 0 0 nan nan 0 -0 nan nan nan nan nan nan nan 0 0 nan 0 0 0 0 0 0 0 -9 nan nan nan nan nan nan nan nan nan nan nan nan nan nan nan nan nan nan nan nan nan nan nan nan nan nan nan nan nan nan nan nan nan nan nan nan
0 0 0 0 0 0 0 0 0 0 0 0 nan nan -1 -0 -0 -0 -0 -0 -0 0 -0 0 0 0 0 -2 0 0 0 -11 nan nan nan nan nan nan nan 0 0 0 0 0 0 0 0 0 0 -1 nan -8 nan nan nan nan nan nan nan nan nan nan nan nan nan nan nan nan nan nan nan nan nan nan nan nan nan nan nan nan nan nan nan nan nan nan
0 0 0 0 0 0 0 0 0 0 0 0 -0 -0 -1 -0 -1 -1 -0 0 0 -5 -8 -6 -6 -5 0 nan 0 0 0 -1 nan nan nan nan 0 0 nan -0 -0 0 -1 nan nan 0 0 0 0 0 -0 -4 nan nan nan nan nan nan nan nan nan nan nan nan nan nan nan nan nan nan nan nan nan nan nan nan nan nan nan nan nan nan nan nan nan nan
0 0 0 0 0 0 0 0 0 0 0 0 0 0 -0 -1 -1 -1 -0 -2 -2 -5 -11 nan nan nan nan 0 0 0 0 -0 nan nan 0 0 0 0 0 -1 -1 nan nan nan nan nan 0 0 0 0 -0 -4 nan nan nan nan nan nan nan nan nan nan nan nan nan nan nan nan nan nan nan nan nan nan nan nan nan nan nan nan nan nan nan nan nan nan
-0 0 0 -0 -0 0 0 0 0 0 0 0 0 0 0 nan -0 -0 -1 -2 -2 -0 0 0 0 0 0 0 0 0 0 nan nan nan nan 0 0 0 0 -2 -2 nan nan nan nan nan -2 -0 -0 -0 -1 nan nan nan nan nan nan nan nan nan nan nan nan nan nan nan nan nan nan nan nan nan nan nan nan nan nan nan nan nan nan nan nan nan nan nan
0 0 0 -0 -0 -0 0 0 0 0 0 0 0 0 0 0 0 0 -2 -0 -0 -0 -0 -0 -0 -0 0 0 0 0 -0 nan nan nan nan 0 0 0 -0 nan nan nan nan nan nan nan nan nan nan -0 -1 nan nan nan nan nan nan nan nan nan nan nan nan nan nan nan nan nan nan nan nan nan nan nan nan nan nan nan nan nan nan nan nan nan nan nan
0 0 0 -0 -0 0 -0 -0 0 0 0 0 0 0 0 0 0 0 -0 -0 -0 -0 -1 nan nan nan -0 0 0 0 -0 nan nan nan nan 0 0 0 -0 nan nan nan nan nan nan nan nan nan nan nan -1 nan nan nan nan nan nan nan nan nan nan nan nan nan nan nan nan nan nan nan nan nan nan nan nan nan nan nan nan nan nan nan nan nan nan nan
0 0 0 0 0 0 0 0 0 0 0 0 0 0 0 0 -0 -0 -0 -0 -0 -0 -0 nan nan -0 0 -0 0 0 0 0 nan nan nan nan -0 -0 -0 nan nan nan -0 -0 -0 nan nan nan nan nan nan -1 nan nan nan nan nan nan nan nan nan nan nan nan nan nan nan nan nan nan nan nan nan nan nan nan nan nan nan nan nan nan nan nan nan nan
0 0 0 0 0 0 0 0 0 0 0 0 0 0 0 0 -0 -0 nan -0 -0 -0 -0 -0 -0 0 0 0 0 0 0 0 nan nan nan nan nan nan nan nan nan -0 0 -0 -0 -0 nan nan nan nan nan nan nan nan nan nan nan nan nan nan nan nan nan nan nan nan nan nan nan nan nan nan nan nan nan nan nan nan nan nan nan nan nan nan nan nan
0 0 0 0 0 0 0 0 0 0 0 0 0 0 0 0 nan nan -0 -0 -0 -0 nan -0 -0 -0 -0 0 0 0 0 0 0 0 nan nan nan nan nan nan nan nan nan -0 -0 0 0 nan nan nan nan nan nan nan nan nan nan nan nan nan nan nan nan nan nan nan nan nan nan nan nan nan nan nan nan nan nan nan nan nan nan nan nan nan nan nan
0 0 0 0 0 0 0 0 0 0 0 0 0 0 0 -0 0 0 0 0 0 nan -1 -0 -0 -0 nan 0 0 0 0 0 0 0 0 nan nan nan -1 -1 -1 nan nan nan nan -0 nan -0 -0 nan nan nan 0 0 -0 nan nan nan nan nan nan nan nan nan nan nan nan nan nan nan nan nan nan nan nan nan nan nan nan nan nan nan nan nan nan nan
0 0 0 0 0 0 0 0 0 0 0 0 0 0 0 -0 0 0 0 0 0 -0 -0 -0 -0 -0 nan -0 -0 -0 0 0 0 0 0 nan nan nan -1 -1 -1 nan nan nan nan nan nan -0 -0 -0 -0 nan nan nan -0 0 0 0 0 0 0 nan nan nan nan nan nan nan nan nan nan nan nan nan nan nan nan nan nan nan nan nan nan nan nan nan
nan nan nan 0 0 0 0 nan 0 0 0 0 0 0 0 0 0 0 0 0 0 0 -1 nan nan nan nan nan -0 -0 0 0 0 0 0 nan -1 -1 -1 -1 -1 -1 nan nan nan nan nan 0 0 0 -0 nan nan nan nan nan nan 0 0 0 0 0 0 nan nan nan nan nan nan nan nan nan nan nan nan nan nan nan nan nan nan nan nan nan nan nan
nan nan nan 0 0 0 0 nan nan nan nan nan 0 0 0 0 0 0 -0 -0 -0 0 nan nan nan nan nan nan 0 0 0 0 0 0 0 nan nan nan -3 -2 -2 nan nan nan nan nan nan nan nan 0 0 0 0 0 -0 0 0 -0 -0 nan nan nan nan nan nan nan nan nan nan nan nan nan nan nan nan nan nan nan nan nan nan nan nan nan nan nan
0 0 nan 0 0 0 0 0 0 0 0 0 0 0 nan 0 0 0 0 -0 -0 -0 nan nan nan nan nan nan nan nan nan 0 0 0 0 -0 nan nan -4 nan nan nan nan nan nan nan nan nan nan 0 0 0 0 0 0 0 0 0 0 0 0 -0 0 nan nan nan nan nan nan nan nan nan nan nan nan nan nan nan nan nan nan nan nan nan nan nan
nan 0 0 0 0 nan 0 0 0 0 0 0 0 0 0 0 0 0 0 0 0 nan nan nan nan nan nan nan nan nan nan nan 0 0 0 0 nan nan nan nan nan nan nan nan nan nan nan nan nan nan nan 0 0 0 0 0 0 0 0 0 0 0 0 0 0 nan nan nan nan nan nan nan nan nan nan nan nan nan nan nan nan nan nan nan nan nan
nan nan nan nan nan nan 0 0 0 0 0 0 0 0 0 0 0 0 0 0 0 0 nan nan nan nan nan nan nan nan nan nan 0 0 0 nan nan nan nan nan nan nan nan nan nan nan nan nan nan nan nan nan 0 0 0 0 0 0 0 0 0 0 0 0 0 0 nan nan nan nan nan nan nan nan nan nan nan nan nan nan nan nan nan nan nan nan
nan nan nan nan nan 0 0 0 0 0 0 0 0 0 0 0 0 0 0 0 0 0 0 0 0 0 nan nan nan nan nan nan 0 0 0 0 nan nan nan nan nan nan nan nan nan nan nan nan nan nan nan nan nan nan 0 0 0 0 0 0 0 0 0 0 0 nan nan nan nan nan nan nan nan nan nan nan nan nan nan nan nan nan nan nan nan nan
nan nan nan nan nan nan 0 nan 0 0 0 0 0 0 0 0 0 0 0 0 0 0 0 0 0 0 0 0 0 0 0 nan nan nan nan nan nan nan nan nan nan nan nan nan nan nan nan nan nan nan nan nan nan nan nan 0 0 0 0 0 0 0 0 nan nan nan nan nan nan nan nan nan nan nan nan nan nan nan nan nan nan nan nan nan nan nan
nan nan nan nan nan nan nan nan 0 0 0 0 0 0 0 0 0 0 0 0 0 0 0 nan nan 0 0 0 0 0 0 nan nan nan nan nan nan nan nan 0 0 nan nan nan nan nan nan nan nan nan nan nan nan nan nan nan nan nan 0 0 0 nan nan nan nan nan nan nan nan nan nan nan nan nan nan nan nan nan nan nan nan nan nan nan nan nan
nan nan nan nan nan nan nan nan nan nan 0 0 0 0 0 0 0 0 0 0 0 0 0 0 0 nan 0 0 0 0 0 nan nan nan nan nan nan nan nan nan nan 0 nan nan nan nan nan nan nan nan nan nan nan nan nan nan nan nan nan nan nan nan nan nan nan nan nan nan nan nan nan nan nan nan nan nan nan nan nan nan nan nan nan nan nan nan
nan nan nan nan nan nan nan nan nan nan nan 0 0 0 0 0 0 0 0 0 0 0 -0 nan nan nan 0 0 0 0 0 nan nan nan nan nan nan nan nan nan nan nan nan nan nan nan nan nan nan nan nan nan nan nan nan nan nan nan nan nan nan nan nan nan nan nan nan nan nan nan nan nan nan nan nan nan nan nan nan nan nan nan nan nan nan nan
nan nan nan nan nan nan nan nan nan nan nan nan nan nan 0 0 0 0 0 0 0 0 nan nan nan nan nan nan nan nan nan nan nan nan nan nan nan nan nan nan nan nan nan nan nan nan nan nan nan nan nan nan nan nan nan nan nan 0 nan nan nan nan 0 nan nan nan nan nan nan nan nan nan nan nan nan nan nan nan nan nan nan nan nan nan nan nan
nan nan nan nan nan nan nan nan nan nan nan nan nan nan nan nan nan nan nan nan nan nan nan nan nan nan nan nan nan nan nan nan nan nan nan nan nan nan nan nan nan nan nan nan nan nan nan nan nan nan nan nan nan nan nan 0 0 0 nan nan nan 0 0 nan nan nan nan nan nan nan nan nan nan nan nan nan nan nan nan nan nan nan nan nan nan nan
nan nan nan nan nan nan nan nan nan nan nan nan nan nan nan nan nan nan nan nan nan nan nan nan nan nan nan nan nan nan nan nan 0 0 nan nan nan nan nan nan nan nan nan nan nan nan nan nan nan nan nan 0 nan nan nan nan nan nan nan nan nan nan nan nan nan nan nan nan nan nan nan nan nan nan nan nan nan nan nan nan nan nan nan nan nan nan
nan nan nan nan nan nan nan nan nan nan nan nan nan nan nan nan nan nan nan nan nan nan nan nan nan nan nan nan nan nan nan nan nan nan nan nan nan nan nan nan nan nan nan nan nan nan nan nan nan nan nan nan nan nan nan nan nan nan nan nan nan nan nan nan nan nan nan nan nan nan nan nan nan nan nan nan nan nan nan nan nan nan nan nan nan nan
nan nan nan nan nan nan nan nan nan nan nan nan nan nan nan nan nan nan nan nan nan nan nan nan nan nan nan nan nan nan nan nan nan nan nan nan nan nan nan nan nan nan nan nan nan nan nan nan nan nan nan nan nan nan nan nan nan nan nan nan nan nan nan nan nan nan nan nan nan nan nan nan nan nan nan nan nan nan nan nan nan nan nan nan nan nan
nan nan nan nan nan nan nan nan nan nan nan nan nan nan nan nan nan nan nan nan nan nan nan nan nan nan nan nan nan nan nan nan nan nan nan nan nan nan nan nan nan nan nan nan nan nan nan nan nan nan nan nan nan nan nan nan nan nan nan nan nan nan nan nan nan nan nan nan nan nan nan nan nan nan nan nan nan nan nan nan nan nan nan nan nan nan
nan nan nan nan nan nan nan nan nan nan nan nan nan nan nan nan nan nan nan nan nan nan nan nan nan nan nan nan nan nan nan nan nan nan nan nan nan nan nan nan nan nan nan nan nan nan nan nan nan nan nan nan nan nan nan nan nan nan nan nan nan nan nan nan nan nan nan nan nan nan nan nan nan nan nan nan nan nan nan nan nan nan nan nan nan nan
nan nan nan nan nan nan nan nan nan nan nan nan nan nan nan nan nan nan nan nan nan nan nan nan nan nan nan nan nan nan nan nan nan nan nan nan nan nan nan nan nan nan nan nan nan nan nan nan nan nan nan nan nan nan nan nan nan nan nan nan nan nan nan nan nan nan nan nan nan nan nan nan nan nan nan nan nan nan nan nan nan nan nan nan nan nan
nan nan nan nan nan nan nan nan nan nan nan nan nan nan nan nan nan nan nan nan nan nan nan nan nan nan nan nan nan nan nan nan nan nan nan nan nan nan nan nan nan nan nan nan nan nan nan nan nan nan nan nan nan nan nan nan nan nan nan nan nan nan nan nan nan nan nan nan nan nan nan nan nan nan nan nan nan nan nan nan nan nan nan nan nan nan
nan nan nan nan nan nan nan nan nan nan nan nan nan nan nan nan nan nan nan nan nan nan nan nan nan nan nan nan nan nan nan nan nan nan nan nan nan nan nan nan nan nan nan nan nan nan nan nan nan 0 0 nan nan nan nan nan nan nan nan nan nan nan nan nan nan nan nan nan nan nan nan nan nan nan nan nan nan nan nan nan nan nan nan nan nan nan
nan nan nan nan nan nan nan nan nan nan nan nan nan nan nan nan nan nan nan nan nan nan nan nan nan nan nan nan nan nan nan nan nan nan nan nan nan nan nan nan nan nan nan nan nan nan nan nan nan nan 0 0 0 0 nan nan nan nan nan nan nan nan nan nan nan nan nan nan nan nan nan nan nan nan nan nan nan nan nan nan nan nan nan nan nan nan
Wind_Speed
1 1 3 6 7 8 7 9 9 8 7 7 8 8 6 5 4 5 7 8 8 9 9 8 9 10 11 13 15 16 17 17 17 17 16 16 16 16 16 16 17 18 18 19 20 20 21 22 22 22 22 22 22 22 22 22 23 23 23 22 22 22 22 21 20 20 20 21 21 21 21 20 19 19 18 18 17 17 16 16 15 14 14 13 13 12
2 2 3 7 8 8 7 10 10 9 8 8 9 9 10 8 6 5 6 7 7 7 7 8 9 10 11 11 13 15 16 17 17 18 18 18 18 18 17 16 16 16 17 17 18 18 19 20 20 21 21 21 21 21 22 22 22 22 22 22 21 21 21 21 20 20 20 21 21 21 21 20 20 19 19 18 18 17 16 16 15 14 14 13 13 12
3 4 4 6 8 8 8 9 10 9 9 9 10 11 14 12 9 6 5 6 6 6 6 7 8 9 10 9 11 12 14 14 15 16 17 19 20 20 20 20 19 18 18 17 17 18 18 18 19 19 20 20 21 21 21 21 21 21 21 21 21 20 20 20 19 19 20 20 20 20 20 20 20 19 19 18 18 17 16 16 15 14 14 13 13 12
4 5 5 5 6 7 8 9 9 8 8 9 10 12 15 13 10 8 6 7 7 7 6 7 8 8 8 8 9 11 12 13 14 14 15 17 18 19 21 22 22 22 22 21 20 19 18 18 18 18 19 19 20 20 20 20 21 21 20 20 20 19 19 18 18 18 18 19 19 19 19 19 19 18 18 18 18 17 17 16 15 14 14 13 13 12
5 5 5 5 5 6 7 8 8 7 7 8 9 10 11 10 9 9 8 8 8 8 7 8 8 8 7 7 9 11 13 14 14 14 15 16 17 17 18 20 21 22 24 24 24 23 22 21 20 19 18 18 19 19 20 20 20 20 20 20 19 19 18 18 17 17 17 17 17 18 18 18 17 17 17 17 17 17 17 16 15 15 14 13 12 12
6 5 5 5 5 4 5 5 6 6 7 6 7 6 5 6 7 8 9 9 9 9 8 8 8 8 7 8 9 11 13 14 15 15 16 16 17 17 17 18 19 20 21 23 24 25 25 24 23 21 20 19 19 19 19 19 20 20 20 19 19 19 19 18 18 17 17 17 17 17 17 17 16 16 16 16 16 16 16 16 15 15 14 13 12 12
5 4 4 4 4 3 4 4 5 6 5 5 5 5 4 3 5 7 9 9 9 9 9 9 9 8 8 9 10 11 13 14 14 15 15 16 17 17 18 18 18 18 19 20 21 23 24 25 25 24 23 22 21 20 20 20 20 19 19 19 20 19 19 19 18 18 17 17 17 17 16 16 16 15 15 15 15 15 15 15 15 14 14 13 12 12
5 4 4 4 3 3 3 4 5 6 6 5 5 5 4 4 5 7 10 9 9 9 9 9 9 9 9 10 10 10 11 11 12 12 13 14 15 16 17 17 18 18 18 19 19 20 21 23 23 24 25 24 23 22 21 21 20 20 20 20 20 20 20 19 19 18 18 17 17 16 16 15 15 14 14 13 13 14 14 14 14 14 13 13 12 12
6 5 5 5 4 4 4 4 5 7 7 5 5 5 5 6 7 7 8 8 8 8 8 8 9 9 9 10 10 10 10 9 9 9 10 11 12 13 15 16 17 17 18 18 18 19 19 20 21 21 22 22 22 22 21 21 20 20 20 20 20 20 20 20 19 19 18 18 17 16 15 14 14 13 13 13 13 13 13 13 13 13 13 12 12 12
8 8 7 7 6 6 5 5 5 5 6 5 5 5 6 8 8 8 8 7 7 6 6 7 8 9 10 10 10 10 10 9 9 9 9 10 12 13 13 13 14 14 16 16 17 18 18 18 19 19 20 20 20 20 20 20 20 19 19 19 19 19 20 20 19 19 19 18 17 16 15 14 13 13 13 12 12 12 12 12 12 12 12 12 12 12
7 8 8 7 6 5 5 5 4 4 4 5 6 6 6 8 8 9 9 8 7 6 6 7 8 9 9 9 9 10 9 9 9 9 10 11 12 13 13 12 12 13 14 14 15 16 16 17 17 18 18 19 19 19 19 19 19 19 19 19 19 19 19 19 19 19 18 18 17 16 15 14 13 13 13 13 12 12 12 11 11 11 11 11 11 11
6 6 6 6 5 5 5 5 4 4 4 5 6 6 6 7 7 8 10 9 8 7 7 7 6 6 6 5 6 8 9 9 9 9 9 10 11 11 11 11 11 12 12 12 12 13 14 15 16 16 17 18 18 18 18 18 18 18 18 18 18 18 18 18 18 18 18 17 17 16 15 14 14 13 13 13 13 12 12 11 10 10 10 10 11 11
5 4 4 5 5 6 5 5 5 5 4 6 7 7 6 6 7 7 9 9 8 8 7 7 6 5 5 3 2 4 8 8 8 8 8 8 8 9 9 9 9 9 9 9 9 10 11 13 14 14 16 16 17 17 17 17 17 17 17 17 17 18 18 18 18 18 17 17 17 16 15 15 14 14 14 14 13 13 12 11 10 10 10 10 11 11
5 5 5 5 5 5 5 6 7 6 5 5 6 6 6 6 6 7 8 8 8 7 7 7 6 5 3 3 2 1 5 8 8 8 8 8 8 8 8 8 9 8 8 8 8 8 10 10 11 12 14 15 16 16 16 16 17 17 17 17 17 17 17 17 17 17 17 17 16 16 15 15 15 14 14 14 13 13 12 11 11 11 11 11 12 12
6 5 5 5 4 4 5 6 6 6 5 4 4 4 5 6 6 7 8 8 8 8 8 8 7 5 2 2 2 1 3 7 8 7 7 6 6 7 8 8 8 8 8 8 8 9 10 9 9 9 11 13 14 15 15 16 16 16 16 16 16 16 16 16 16 16 16 16 16 16 15 15 15 14 14 14 13 13 12 12 12 12 12 13 13 13
4 4 5 4 4 3 3 5 5 6 5 4 4 4 6 5 5 5 7 8 8 8 8 8 7 5 2 1 2 2 2 6 7 7 7 5 3 3 6 8 8 7 7 7 7 8 9 9 9 9 10 13 14 15 15 16 16 16 16 16 16 16 16 16 16 16 16 16 16 15 15 15 15 14 14 14 14 13 13 13 13 13 13 13 13 13
3 3 3 3 3 3 2 2 3 4 3 3 4 4 5 5 4 5 7 7 7 7 7 8 8 6 4 1 1 2 1 5 7 7 7 5 3 3 3 6 7 7 6 6 6 6 7 8 8 9 10 12 13 14 15 15 15 15 15 16 16 15 15 15 16 16 16 16 16 16 16 15 15 15 14 14 14 14 14 14 14 14 14 14 13 13
3 2 2 4 4 3 3 4 3 2 1 2 3 4 4 4 4 5 6 7 7 7 7 7 7 7 6 4 2 1 2 4 7 8 7 5 3 3 3 5 7 7 6 6 5 5 6 7 8 8 9 12 13 14 14 15 15 15 15 15 15 15 15 16 16 16 16 16 16 16 16 16 16 15 15 15 14 14 14 14 14 14 14 13 13 13
6 6 6 5 4 3 4 4 4 3 3 1 2 4 5 4 4 4 5 6 7 7 8 7 7 7 7 6 4 1 2 3 7 8 7 6 4 3 3 4 7 7 6 6 5 5 5 6 7 9 11 13 13 14 14 14 15 15 15 15 15 16 16 16 17 17 17 17 17 17 17 16 16 16 15 15 15 15 14 14 14 14 13 13 12 12
7 7 7 6 5 4 4 4 4 4 4 3 2 2 4 4 4 4 4 5 6 6 7 8 8 7 7 6 4 1 2 3 6 8 7 5 3 3 3 3 6 8 6 6 5 5 5 6 8 10 12 13 14 14 14 15 15 15 16 16 16 17 17 17 18 18 18 18 18 17 17 17 16 16 16 15 15 15 14 14 14 13 13 12 12 11
7 8 8 6 5 4 4 4 5 5 5 4 3 2 3 4 4 4 4 4 4 4 4 4 5 5 6 6 4 1 1 3 6 7 6 4 3 2 2 3 6 7 6 4 3 4 6 7 7 8 10 13 14 15 15 16 16 17 17 17 18 18 18 18 19 19 19 18 18 18 17 17 17 16 16 16 15 15 14 14 13 13 12 11 11 10
8 8 8 8 7 5 5 5 6 7 7 6 4 3 1 2 3 4 4 4 3 3 4 4 4 5 6 6 4 1 2 2 6 8 6 5 3 2 2 3 5 6 5 3 2 4 7 7 7 7 10 13 15 16 16 17 17 18 18 19 19 19 19 19 19 19 19 19 18 18 17 17 16 16 16 16 15 15 14 14 13 12 12 11 10 9
9 8 9 9 8 7 6 6 6 7 7 6 5 4 3 1 1 2 4 4 4 5 6 5 5 6 7 6 4 3 3 2 4 7 7 6 4 3 2 3 5 5 4 3 4 4 7 7 7 8 10 15 16 17 18 18 18 19 19 19 19 19 19 19 19 19 19 18 18 17 17 16 16 16 16 15 15 15 14 13 13 12 11 10 9 8
10 10 9 9 9 8 7 6 6 5 5 5 5 4 4 3 3 2 3 5 6 7 6 6 6 6 6 5 5 4 4 3 2 4 6 5 5 4 2 4 5 6 5 4 4 5 6 7 7 8 9 14 17 18 19 19 19 19 20 20 20 20 20 19 19 19 18 18 17 17 16 16 16 15 15 15 15 14 14 13 12 11 10 9 9 8
11 10 10 11 13 13 12 10 9 8 6 5 4 4 4 3 3 4 6 7 7 7 6 6 6 5 4 4 4 3 4 3 2 3 5 5 4 4 3 4 5 6 5 4 4 5 6 7 7 8 8 12 15 18 19 20 20 20 20 20 20 20 19 19 19 18 18 17 17 16 16 15 15 15 14 14 14 14 13 12 12 11 10 9 8 7
16 17 17 19 21 22 22 20 19 17 14 9 6 4 4 1 2 5 6 6 6 7 7 7 6 5 3 3 3 3 2 3 3 3 4 5 5 4 3 3 5 5 5 4 4 5 5 6 7 7 7 9 13 17 19 20 20 20 20 20 20 19 19 19 18 18 17 17 16 16 15 15 14 14 14 14 13 13 12 11 11 10 9 8 7 6
24 24 25 26 26 26 26 26 25 24 22 18 14 10 6 1 2 5 5 5 6 6 7 6 5 4 3 3 3 2 2 3 3 3 2 4 6 5 4 4 5 6 6 4 5 5 7 6 6 6 6 7 10 14 18 19 19 19 19 19 19 19 19 18 18 18 17 16 16 15 15 14 14 13 13 13 12 12 11 10 9 8 7 6 5 5
24 25 25 25 25 25 25 25 25 25 25 24 22 18 11 5 3 4 4 3 3 5 7 7 6 5 3 3 3 3 3 3 3 3 2 3 5 6 5 4 5 6 6 5 5 6 8 7 6 5 5 5 7 11 15 17 18 18 18 18 18 18 18 18 18 17 17 16 16 15 14 14 13 12 12 11 11 10 9 8 7 6 5 4 3 3
21 22 23 24 24 23 22 22 22 24 25 25 23 20 14 9 6 5 3 3 1 3 6 7 7 6 4 4 3 3 3 3 3 4 3 3 5 6 5 5 5 5 6 5 4 5 6 5 5 4 4 5 6 8 10 13 14 15 16 17 18 18 18 17 17 17 16 16 15 14 14 13 12 12 11 10 10 9 8 7 5 4 3 2 2 2
16 17 18 19 20 19 18 17 18 19 22 23 22 19 14 9 7 6 5 5 3 1 5 7 7 7 6 5 4 3 3 3 4 4 3 2 4 6 6 6 5 5 5 5 4 4 4 3 4 4 4 5 6 6 6 7 8 10 11 14 15 16 17 17 17 16 16 15 15 14 13 13 12 11 10 9 9 8 6 5 3 2 1 2 2 1
14 14 14 14 15 14 14 13 14 15 17 19 18 16 13 10 8 7 6 6 5 3 3 5 6 7 7 5 4 3 2 2 4 5 4 1 4 6 7 7 6 5 4 4 5 5 3 2 2 3 4 5 5 5 5 5 5 5 6 8 10 12 14 15 15 15 15 14 14 13 13 12 11 10 10 9 8 7 6 4 2 1 1 1 1 1
12 11 11 11 11 11 11 11 11 11 13 13 13 13 12 11 9 8 7 7 6 5 4 4 4 5 5 4 4 3 3 2 3 5 5 2 3 5 7 7 6 5 2 3 4 6 5 3 2 2 3 4 4 4 5 5 4 4 4 5 6 8 11 11 12 12 12 12 13 12 12 11 11 10 9 8 8 7 6 5 4 2 1 1 1 1
11 10 10 10 10 10 10 10 10 10 10 10 10 10 10 10 10 10 8 8 8 7 6 6 5 5 5 5 5 5 4 3 4 5 5 2 1 3 5 6 6 4 2 2 3 4 5 5 4 3 3 3 3 4 4 4 4 4 4 4 4 5 7 7 7 8 8 9 9 10 10 10 9 9 8 8 7 7 6 6 5 4 3 2 2 1
11 10 10 10 9 9 9 10 10 10 10 10 10 10 10 9 10 10 10 9 9 9 8 7 6 6 5 6 6 5 4 4 5 6 5 2 1 2 4 5 5 5 3 2 3 4 5 6 6 5 4 3 3 3 3 3 3 3 3 4 4 4 4 4 4 5 5 5 5 6 6 7 7 7 7 7 7 6 6 6 6 5 5 4 3 2
10 10 10 10 9 9 9 10 10 10 10 10 10 10 10 9 9 9 10 10 10 10 9 9 8 7 6 6 5 5 4 4 5 6 5 3 2 2 3 3 4 4 4 4 4 4 5 6 7 7 5 4 3 3 3 3 3 3 3 3 3 3 3 3 3 4 4 4 4 4 4 4 4 4 5 5 6 6 6 6 5 5 5 5 4 3
9 10 10 9 9 9 9 10 10 10 10 9 9 9 9 9 9 9 9 10 10 10 11 10 10 9 8 8 7 6 4 4 5 6 5 4 3 3 3 3 2 2 3 4 5 5 6 7 7 7 6 5 4 3 3 3 3 3 3 4 4 3 3 3 3 3 4 4 4 4 3 3 3 3 4 4 5 5 5 5 5 5 5 5 5 4
9 9 9 9 9 9 9 9 9 9 9 8 8 9 9 9 9 9 9 10 10 10 10 11 11 11 11 9 8 6 5 5 5 6 7 5 4 4 4 3 3 3 2 3 4 6 7 8 7 7 6 5 4 4 4 3 3 3 3 4 4 4 3 3 3 3 3 4 4 4 3 3 3 3 3 4 4 4 4 4 4 4 4 3 3 3
8 8 8 8 8 8 8 8 8 8 8 8 8 8 8 9 9 9 9 10 11 11 10 10 10 11 14 13 11 9 8 9 9 10 10 8 6 5 5 4 4 4 3 3 3 5 7 8 8 7 5 5 4 5 5 4 4 4 4 4 4 3 3 3 2 2 3 3 4 4 4 3 3 3 3 2 2 2 3 3 3 2 2 1 1 1
8 8 8 8 8 8 7 7 7 7 7 7 7 7 7 8 9 9 9 9 10 11 11 10 9 10 12 13 13 13 12 12 13 13 12 10 8 7 6 5 5 5 4 4 3 4 5 6 6 6 6 5 5 5 4 4 4 4 4 4 4 3 3 2 2 2 2 3 3 4 3 3 2 2 2 2 1 1 1 2 2 2 1 1 1 1
8 8 8 8 8 7 7 7 7 6 6 7 7 7 7 6 7 7 8 8 9 9 10 10 9 9 10 11 12 13 13 13 13 13 12 11 9 7 6 6 5 5 5 4 4 4 4 5 5 6 6 6 5 5 4 4 4 5 5 4 3 3 3 3 2 2 2 2 3 3 3 2 2 2 2 2 2 2 2 1 2 2 2 2 2 2
7 7 7 7 7 7 7 6 6 6 6 6 6 6 6 6 6 6 6 7 7 7 7 8 8 8 9 10 11 12 13 13 13 13 12 12 11 9 7 6 5 5 5 5 5 5 5 6 6 6 6 6 6 6 5 5 5 5 5 4 3 3 4 3 3 2 2 2 2 2 2 2 2 2 2 2 2 2 2 2 2 2 2 2 2 2
7 7 6 6 6 6 6 6 6 6 6 6 6 6 6 6 6 6 6 6 6 6 6 6 6 7 8 8 9 11 11 12 13 13 13 13 12 10 8 7 6 5 5 5 6 6 6 6 6 6 6 6 6 5 5 5 4 4 3 3 4 4 4 4 3 2 2 2 2 2 2 2 2 2 2 2 1 1 1 1 2 2 2 2 2 2
6 6 6 6 5 5 5 6 6 6 6 6 6 6 6 6 6 6 6 6 6 6 6 6 6 6 7 7 8 8 9 11 12 12 12 12 12 11 9 8 7 6 5 5 5 6 6 6 6 5 5 5 5 5 6 5 5 4 3 3 3 3 3 3 3 3 2 3 2 2 2 2 2 2 1 1 1 1 1 1 1 1 2 2 2 2
6 5 5 5 5 5 5 5 5 5 6 6 6 6 6 6 6 6 6 6 6 6 6 5 5 6 6 7 7 7 7 9 10 11 12 12 12 11 9 9 8 7 6 5 5 5 5 6 6 5 4 4 4 5 5 5 4 4 3 3 2 2 2 3 3 3 3 3 3 3 3 2 2 2 1 1 0 0 1 1 1 1 2 2 2 3
5 5 5 5 5 5 6 6 6 5 6 6 6 6 6 6 6 6 6 5 6 6 5 5 4 4 5 6 6 6 6 6 7 8 9 11 12 11 10 8 8 7 7 6 5 4 4 4 4 4 4 4 4 5 5 5 4 4 4 3 2 2 3 3 3 3 3 3 3 3 3 2 2 1 1 1 1 1 1 1 2 2 2 2 2 3
6 6 6 6 6 6 7 6 6 6 6 6 6 6 6 6 6 6 6 6 6 6 6 5 5 5 5 5 5 5 5 5 5 6 6 7 8 8 8 7 7 6 6 6 6 5 5 4 4 4 3 4 4 4 4 4 4 4 4 4 3 3 3 3 3 3 2 3 3 3 3 2 2 1 1 1 1 1 1 2 2 2 2 2 2 3
7 6 6 6 6 6 6 6 6 6 6 6 6 6 6 6 6 6 6 6 6 6 6 6 6 6 6 6 5 5 5 5 5 5 5 6 6 6 6 6 6 6 6 6 6 6 6 5 4 3 3 3 3 3 3 3 3 3 4 3 3 3 3 3 3 3 3 3 3 3 3 2 2 2 2 2 2 2 2 2 2 2 2 2 3 3
7 7 6 6 6 6 6 6 6 6 6 6 6 6 6 6 7 6 5 6 6 5 5 6 6 6 7 6 6 6 6 6 5 5 5 5 5 5 5 5 5 5 6 6 7 7 7 6 5 4 3 3 3 3 3 3 3 3 3 3 3 3 3 3 3 2 2 3 3 3 2 2 2 2 2 2 2 2 2 2 2 2 2 2 2 3
7 7 6 6 6 6 6 6 6 6 6 6 6 6 6 7 7 7 6 6 6 5 5 6 6 6 6 6 6 6 6 6 5 5 5 5 5 4 4 4 4 4 5 6 6 6 6 6 7 6 5 4 3 3 4 4 3 3 3 3 3 3 3 3 3 2 2 2 2 2 1 1 2 2 2 3 3 3 3 3 3 3 2 2 2 2
6 6 6 6 6 6 6 6 6 6 6 6 6 6 6 6 6 6 6 6 6 6 6 6 6 6 6 6 6 6 6 5 5 5 5 4 4 4 4 3 3 4 4 4 4 4 4 5 5 7 8 7 5 3 3 4 4 3 3 3 2 2 2 2 2 2 1 1 1 0 1 1 1 2 2 3 3 3 3 3 3 2 2 2 2 2
6 6 6 6 6 6 6 6 6 6 6 6 6 5 5 5 5 5 5 5 6 6 6 6 6 6 6 6 6 6 6 5 5 5 5 4 4 4 3 3 2 2 3 3 3 3 3 3 3 4 6 8 8 6 3 3 3 3 3 3 2 2 2 1 1 1 1 0 1 1 1 2 2 2 2 2 3 3 3 3 3 2 1 1 2 2
Wind_Direction
296 196 189 180 170 160 161 169 170 169 166 159 153 150 146 149 161 169 166 160 153 149 149 150 151 153 153 151 148 145 142 140 138 135 131 127 122 118 115 114 114 114 115 117 120 122 125 127 129 130 132 132 133 133 133 132 132 133 134 135 136 136 137 137 137 137 137 136 136 136 136 135 134 131 129 126 124 122 121 121 120 119 119 118 117 115
259 233 209 193 181 167 157 167 170 169 166 161 155 151 149 154 160 163 158 149 144 142 147 150 151 151 149 146 146 146 146 146 145 144 141 138 135 132 129 127 124 122 122 121 121 123 125 126 128 130 131 132 133 133 133 133 133 133 134 135 135 135 136 136 136 136 136 136 136 135 135 134 133 131 129 127 125 124 123 122 121 120 119 118 116 114
227 223 212 199 188 176 160 166 168 168 163 161 158 155 152 154 157 159 154 143 138 138 146 148 148 148 147 143 142 143 144 146 147 148 146 146 145 144 143 142 140 138 136 133 131 130 130 130 131 132 134 134 135 135 134 134 133 134 134 134 134 134 134 134 134 134 134 134 134 134 133 132 131 130 129 127 126 125 124 123 122 120 119 117 115 113
230 220 206 199 191 180 164 163 163 163 160 161 160 159 156 155 156 159 157 145 141 140 144 144 145 145 146 145 143 142 142 142 143 144 145 146 147 148 149 150 149 148 147 145 142 140 139 137 137 137 137 137 137 136 135 134 134 134 133 133 132 132 132 132 132 132 132 132 131 131 130 129 128 128 128 127 127 127 126 124 123 120 118 116 113 111
238 225 205 198 190 179 163 158 157 158 158 161 163 163 162 157 155 156 158 151 147 145 145 144 144 145 145 147 146 144 142 141 140 140 140 140 142 144 147 149 150 150 150 149 147 146 144 143 141 140 139 138 137 137 136 135 134 133 132 131 131 130 130 130 130 129 129 129 128 128 127 127 127 128 129 129 129 128 127 125 123 120 118 115 113 111
236 233 213 203 190 171 153 154 155 156 160 166 171 173 170 158 153 155 160 157 152 148 146 145 145 145 144 145 146 145 143 141 139 138 137 137 137 138 139 142 143 145 146 147 147 146 145 145 144 142 141 140 138 137 136 135 134 133 132 131 130 129 129 128 127 127 127 126 126 126 126 127 128 130 131 131 130 129 127 124 122 119 117 115 113 111
227 237 232 211 186 156 146 156 161 163 166 169 175 180 180 165 162 165 168 161 153 148 146 147 147 145 142 140 141 143 142 140 138 137 136 135 135 135 135 136 137 138 140 141 142 143 143 144 143 143 142 141 140 139 138 136 135 133 132 131 130 129 128 127 127 126 126 125 126 127 128 129 131 132 133 131 129 127 124 122 120 119 117 116 114 112
204 221 237 216 183 148 152 163 174 178 178 169 168 172 175 176 175 173 169 155 146 143 144 146 146 144 141 139 141 143 143 141 139 138 137 135 134 134 134 134 135 136 137 137 138 139 139 140 141 141 142 142 141 141 140 138 136 134 133 132 131 130 129 128 128 127 127 127 128 129 130 131 132 132 131 129 126 124 122 121 120 119 118 117 116 113
192 198 219 211 189 166 165 167 180 187 189 179 167 162 163 170 170 165 159 143 137 138 143 145 144 141 138 141 144 147 148 146 145 144 143 140 138 136 134 134 135 135 136 137 137 137 137 138 138 139 140 140 140 140 139 137 136 135 134 133 132 131 130 130 129 129 129 130 130 130 131 131 130 130 129 126 124 123 121 121 120 120 120 119 118 116
191 192 203 205 194 178 167 160 167 179 188 188 179 170 162 165 163 156 145 134 131 134 141 143 142 140 140 143 146 148 147 145 144 143 140 137 137 137 134 133 134 135 136 136 136 136 137 137 137 137 138 138 138 137 136 135 135 134 134 133 133 132 131 131 131 131 131 131 131 131 130 130 129 128 127 125 123 122 121 121 121 122 122 121 120 117
189 190 195 196 189 177 163 151 147 155 177 187 188 185 180 173 163 151 140 134 134 139 146 145 143 141 140 142 145 147 144 141 139 135 130 129 130 131 130 129 129 130 132 133 133 134 135 136 136 137 137 137 136 136 135 134 134 134 134 134 134 133 133 133 133 133 133 133 132 131 130 129 127 126 125 124 123 122 121 122 122 123 123 122 120 117
179 184 192 188 178 167 154 141 135 140 163 180 185 187 190 183 167 151 141 139 141 145 145 138 129 121 112 120 136 143 141 138 137 135 132 130 129 129 128 126 125 126 128 128 128 130 131 133 135 136 137 137 136 136 135 135 135 135 135 135 135 134 134 134 134 134 134 134 133 132 131 129 128 127 125 124 123 123 122 122 123 122 122 120 117 114
170 175 185 178 170 162 152 145 146 153 166 177 179 178 179 176 164 150 140 138 140 140 134 122 106 87 67 55 90 134 139 136 135 136 138 138 139 138 134 131 131 132 132 132 130 129 130 132 135 136 138 137 137 136 136 135 136 136 136 136 136 136 135 135 135 135 135 135 134 133 132 131 129 128 127 126 125 124 123 123 122 120 118 115 111 107
166 168 174 167 163 159 153 151 155 161 170 174 173 170 166 163 157 149 139 135 133 130 123 116 107 91 57 22 13 96 137 133 134 136 138 140 143 142 138 136 137 139 141 139 138 136 137 137 137 138 139 139 137 136 136 135 136 137 137 137 137 137 137 136 136 136 136 135 135 134 133 132 131 130 128 127 126 124 122 121 118 115 112 109 105 101
164 161 159 154 153 155 157 155 159 165 174 176 171 166 163 160 155 148 138 134 131 127 121 117 113 105 76 22 350 347 140 132 131 130 127 124 129 137 140 138 138 139 138 137 138 140 144 145 144 143 145 145 143 141 140 138 138 138 138 138 138 138 138 137 137 136 136 135 135 134 134 132 131 129 127 125 123 121 118 115 112 110 107 104 100 97
161 153 146 139 137 141 152 159 164 169 175 179 176 169 164 159 150 140 133 133 133 132 131 129 128 124 102 27 340 322 162 133 127 121 116 102 83 99 138 134 130 125 122 127 135 143 148 148 147 147 148 146 145 143 143 141 140 139 139 139 139 139 138 137 137 136 135 135 134 133 132 130 128 126 124 122 119 116 113 111 108 106 104 102 99 97
149 145 139 114 97 86 80 106 139 153 154 168 172 168 158 146 136 130 132 136 139 141 143 143 143 143 140 130 329 314 216 139 130 122 116 99 56 31 107 120 116 109 106 114 127 140 148 149 149 147 145 142 141 140 141 141 140 140 140 140 139 139 138 137 135 134 133 132 131 130 129 127 125 123 120 118 115 113 111 109 107 105 104 102 100 98
37 39 64 73 71 60 48 50 58 71 72 135 155 158 156 138 131 134 141 145 149 151 152 152 152 151 149 155 169 281 286 148 134 125 120 107 70 32 56 106 110 109 109 115 126 139 148 147 142 137 133 133 134 136 138 139 139 140 140 139 138 137 136 134 133 132 130 129 128 127 125 124 122 120 118 116 114 112 111 109 107 106 104 103 101 98
29 23 24 33 43 48 46 41 36 29 19 31 118 137 144 151 147 141 146 152 155 155 154 154 154 153 149 148 149 175 286 162 138 127 122 110 83 41 27 105 112 110 114 123 133 141 142 125 114 111 119 125 129 132 134 136 137 137 137 136 135 133 132 131 129 128 127 126 125 124 123 122 120 119 117 116 114 112 111 109 107 106 104 102 100 97
39 31 22 17 19 28 38 35 28 18 2 351 20 111 133 149 150 146 146 149 154 158 160 160 155 148 140 134 131 140 266 162 134 122 116 105 78 30 7 110 116 114 116 124 136 140 127 109 105 109 118 122 126 130 131 132 132 132 131 130 129 128 128 127 126 125 124 123 123 122 121 120 119 118 117 115 114 112 110 108 106 104 102 99 97 94
44 37 26 17 13 15 20 17 13 8 359 351 359 48 117 142 150 151 146 145 146 146 141 135 129 123 123 122 120 121 283 146 128 119 115 105 82 41 10 91 108 109 104 102 123 132 118 109 108 113 120 124 126 127 128 128 128 127 126 126 125 124 123 123 123 122 122 121 121 121 120 119 119 117 116 115 113 111 109 107 105 102 100 97 94 91
44 37 28 24 23 22 16 7 3 1 360 2 7 21 65 137 151 156 158 158 144 110 77 67 65 73 91 99 97 59 324 137 130 125 122 113 96 64 28 82 97 99 92 70 70 93 105 104 105 112 122 124 124 124 124 123 123 123 122 122 121 121 120 120 120 120 120 120 120 120 119 119 118 117 116 115 113 111 109 107 104 101 99 96 92 89
40 33 26 25 25 25 21 14 7 3 1 6 9 10 4 9 117 156 161 149 118 93 79 77 73 72 78 83 76 47 8 68 118 124 120 117 113 101 71 89 95 94 84 58 46 58 80 89 94 102 112 116 118 118 119 119 119 119 118 118 117 117 117 117 118 118 118 118 118 118 118 118 117 116 116 115 113 111 109 107 104 101 98 95 91 88
38 33 27 24 23 23 25 24 20 15 9 7 4 1 356 352 358 31 94 93 93 94 97 94 87 81 78 79 71 50 22 21 77 113 114 113 112 109 97 98 96 90 76 47 38 49 71 80 86 91 98 106 109 111 113 114 114 114 114 114 114 114 115 115 116 116 116 117 117 116 116 116 116 116 115 114 113 111 109 106 103 100 96 93 89 85
38 35 31 27 25 26 27 30 31 29 24 15 3 351 341 357 36 63 78 87 95 102 106 101 97 94 91 85 75 55 25 8 33 93 109 109 108 107 98 99 100 96 82 54 42 50 70 79 82 85 89 96 101 104 106 108 108 109 110 110 111 112 113 113 114 114 114 114 114 114 114 114 114 114 114 113 112 110 108 105 102 100 97 93 88 83
40 37 34 30 28 28 28 31 33 33 31 27 16 358 334 352 85 92 96 104 110 114 112 106 103 102 102 95 84 66 32 12 23 61 104 112 114 111 97 92 95 97 92 69 52 53 67 74 78 80 82 90 96 99 101 102 104 106 107 108 109 110 111 111 112 112 112 112 112 112 112 112 112 112 111 111 110 108 107 105 103 102 101 99 94 88
39 38 35 32 29 27 26 28 30 31 31 28 23 14 351 341 118 113 112 118 124 125 120 115 111 108 100 92 84 71 43 28 24 32 69 111 116 114 108 102 102 102 98 80 62 56 62 65 66 66 70 83 92 95 98 99 101 103 104 105 107 108 108 109 109 110 110 109 109 109 108 108 108 108 109 108 108 107 106 105 106 107 109 111 106 99
38 36 35 32 29 27 25 25 26 28 29 28 25 20 10 12 49 84 94 106 128 134 130 128 127 123 113 100 84 67 51 40 21 6 4 104 114 115 121 119 117 113 107 92 70 58 57 56 52 49 50 67 86 95 97 97 98 99 100 102 103 104 105 106 106 106 107 106 106 105 105 105 105 105 105 106 106 106 106 107 109 112 118 122 120 115
34 35 34 32 29 27 25 24 25 25 27 28 27 25 21 22 29 34 22 359 32 139 137 135 134 130 121 110 95 72 53 39 13 350 339 96 112 118 128 130 129 125 115 105 85 64 52 44 38 35 37 51 72 88 94 94 95 97 97 98 99 100 101 102 102 103 103 103 103 102 102 101 101 101 101 102 103 103 104 108 112 116 123 122 115 109
29 30 31 30 28 26 24 23 23 23 24 27 27 27 24 25 23 16 360 345 342 108 136 133 131 130 126 120 109 86 55 29 2 347 341 89 117 126 134 138 141 139 129 120 106 87 64 41 29 28 33 45 54 65 75 83 90 95 98 98 97 97 97 98 98 98 98 98 98 98 98 98 97 97 96 96 96 96 96 99 104 111 116 112 109 106
25 26 27 26 25 23 22 21 20 20 21 23 24 24 22 21 18 13 6 359 359 19 103 121 128 133 136 134 128 114 87 27 -0 351 346 64 123 135 142 144 146 147 143 133 127 122 114 84 43 35 40 49 54 57 58 63 70 80 91 96 97 97 96 96 95 94 93 93 93 93 93 93 93 91 90 88 87 84 81 75 66 55 75 88 96 97
25 25 26 24 23 22 21 20 20 20 20 21 20 19 18 19 18 17 15 12 11 17 40 79 105 118 124 117 111 108 100 53 8 357 351 26 119 138 147 145 144 144 145 136 134 134 131 130 118 88 70 67 64 61 57 55 53 56 66 82 92 96 96 95 94 93 91 90 89 89 89 89 88 86 84 81 78 74 67 57 42 24 13 30 45 58
27 26 25 24 24 24 23 22 22 22 23 22 20 18 17 17 19 20 22 21 20 22 28 42 59 73 79 77 78 81 80 55 14 358 353 7 102 135 145 143 141 138 128 108 115 121 123 129 130 127 111 94 82 72 64 59 55 55 61 74 84 89 91 92 93 93 93 91 89 88 88 86 85 84 80 77 73 68 61 53 41 25 5 4 4 5
28 28 26 25 25 25 24 23 24 24 25 24 22 20 17 17 19 22 26 27 28 29 30 33 40 52 69 79 81 79 70 42 11 359 354 1 68 121 133 139 141 140 133 116 103 104 109 122 128 130 122 110 97 87 81 76 71 69 74 83 88 90 88 88 91 93 95 95 94 93 92 90 89 87 81 76 72 67 61 54 44 32 20 11 3 354
30 29 27 25 25 24 24 23 23 24 25 25 23 20 18 19 21 24 28 31 34 35 36 35 35 39 51 68 78 78 64 32 7 360 358 7 46 96 110 123 134 139 138 132 124 120 120 127 132 134 128 122 114 104 96 96 98 99 100 101 102 103 104 105 106 107 107 106 104 103 101 100 98 93 84 77 73 69 65 59 50 40 32 22 13 2
31 30 27 25 24 23 23 22 22 22 23 23 22 21 20 20 22 26 30 34 37 41 43 42 42 41 43 53 62 66 59 31 12 7 11 20 43 72 86 86 93 109 127 133 134 133 132 133 135 135 132 130 126 120 112 115 118 120 118 116 115 115 119 122 125 126 124 120 115 111 108 106 102 96 88 86 83 81 77 70 60 49 39 30 20 10
32 31 28 25 23 22 21 21 21 20 20 20 20 21 22 23 25 29 33 36 39 42 46 47 48 49 50 54 57 58 54 40 30 27 29 35 48 65 78 72 64 65 91 120 131 134 133 134 135 136 136 135 132 129 129 133 132 129 124 121 120 120 122 126 129 130 126 121 116 112 109 108 105 102 102 101 103 104 99 89 77 62 45 35 22 10
32 30 28 25 23 21 20 20 18 17 16 16 17 20 23 28 31 34 38 41 43 45 47 47 49 51 51 55 56 55 52 46 42 39 38 41 50 62 74 72 61 51 52 78 113 128 133 136 139 141 140 133 128 128 134 138 137 133 126 122 119 117 117 118 118 118 117 114 112 110 111 112 113 114 118 121 126 127 118 110 96 78 53 39 19 352
31 30 27 25 22 21 20 19 17 14 12 13 14 17 23 31 35 39 42 45 46 48 49 50 50 50 49 50 51 50 49 46 44 42 41 41 45 54 66 69 64 55 47 49 70 101 121 131 137 139 137 130 126 126 129 131 132 130 127 124 119 114 111 109 107 106 108 113 116 119 121 121 120 119 115 112 105 96 89 85 74 57 15 338 288 246
30 29 27 25 23 22 21 19 17 14 12 12 13 16 20 29 35 40 44 47 49 50 51 51 52 51 49 47 46 45 45 45 44 43 42 41 42 46 55 60 62 59 54 51 57 70 90 105 113 118 121 123 126 127 127 127 130 133 135 134 131 127 123 117 113 111 110 113 117 120 120 116 111 106 98 87 76 63 48 42 39 29 3 342 324 303
31 28 26 23 22 21 22 20 19 18 16 15 15 15 17 22 28 35 39 44 47 48 48 51 52 52 51 49 46 45 44 45 45 45 44 42 42 44 48 51 53 56 58 59 59 63 74 89 100 107 111 117 121 123 124 127 133 138 143 139 131 125 124 123 121 118 115 106 99 94 95 99 99 93 82 77 69 58 40 18 9 3 348 335 325 318
31 29 24 21 20 20 20 20 22 22 22 21 21 20 17 17 21 27 34 39 41 42 42 45 49 53 53 51 48 46 44 45 45 45 45 44 44 44 45 44 45 50 58 62 63 62 67 79 91 103 113 120 123 125 124 124 124 126 126 124 124 125 126 129 128 122 112 100 93 86 82 84 83 78 68 60 61 58 42 15 358 345 327 319 313 308
29 27 23 21 21 21 22 23 24 25 25 26 26 24 20 17 18 23 32 37 39 41 41 44 49 54 57 55 52 48 46 45 45 46 47 46 45 45 45 43 43 44 53 65 68 66 63 65 70 78 90 106 116 121 123 121 120 117 113 121 136 147 150 140 132 123 107 94 83 73 62 53 48 44 38 27 21 18 11 325 299 291 289 295 294 290
25 24 21 20 20 21 23 25 26 27 28 30 30 28 23 19 19 23 31 36 38 38 40 42 47 53 58 58 57 53 50 47 45 45 47 47 47 47 47 46 45 44 48 61 72 76 75 70 68 69 74 88 102 111 117 120 121 121 120 123 129 129 115 113 114 115 110 98 84 68 52 38 25 10 353 324 294 274 278 273 264 259 260 271 276 278
20 21 20 19 19 21 24 25 26 28 31 32 32 29 25 22 22 24 31 37 39 38 37 39 44 51 54 55 56 55 53 49 46 45 45 45 46 48 49 49 49 49 50 55 64 73 82 82 81 79 78 86 95 103 112 118 120 121 117 114 102 84 74 83 93 102 103 96 84 69 51 33 9 342 312 297 286 283 277 278 278 275 269 268 271 273
16 18 18 18 19 20 22 22 23 27 31 33 32 29 26 24 24 27 32 38 42 43 42 42 46 51 53 52 52 53 52 50 47 46 45 44 44 45 47 50 51 53 55 57 60 65 73 82 89 93 92 91 92 95 103 112 118 121 122 122 116 107 98 93 89 85 83 79 70 58 41 21 355 327 314 314 309 298 283 274 271 271 273 274 274 274
14 15 16 17 18 19 19 19 21 25 30 32 31 28 25 24 26 29 33 38 43 47 49 50 52 54 54 52 50 50 51 50 48 47 46 45 45 46 49 52 55 58 61 63 63 63 64 66 72 83 97 101 100 99 97 102 109 116 122 125 126 122 113 102 89 78 68 63 54 43 26 7 348 332 327 318 304 290 278 269 265 265 266 270 272 274
13 13 14 16 17 19 18 18 20 23 27 28 29 27 25 25 26 29 34 36 42 48 52 55 56 57 56 53 51 50 51 51 49 47 45 44 45 46 49 56 61 65 66 68 68 67 64 57 52 50 59 85 104 111 111 106 104 106 112 119 121 119 112 104 96 87 77 68 54 38 13 355 343 335 325 307 292 281 275 271 264 258 254 258 264 271
14 13 13 15 17 19 18 18 18 20 24 25 25 25 25 25 27 29 33 35 40 46 51 55 58 60 59 55 53 50 50 50 49 45 42 40 40 42 47 58 68 75 77 77 76 75 72 63 53 44 35 43 70 101 113 111 107 104 103 106 109 110 110 110 108 105 94 81 68 44 357 335 327 319 306 291 283 279 278 274 267 257 246 246 255 266
16 15 14 15 17 18 18 17 18 19 21 22 23 23 24 25 26 28 31 35 40 45 49 53 56 58 59 57 53 50 49 49 47 44 39 34 33 35 42 54 72 86 91 90 91 92 90 79 64 51 39 35 38 59 103 110 110 105 96 89 88 92 102 111 113 109 92 87 82 26 299 286 281 276 276 277 278 278 277 272 266 258 244 242 251 261
17 16 15 16 18 18 17 18 18 17 18 20 21 23 24 26 27 28 30 35 40 45 49 52 54 57 58 56 53 50 48 48 46 43 38 31 28 30 35 46 69 96 109 113 117 119 117 108 92 69 50 37 29 28 59 95 110 112 104 94 86 83 94 110 115 113 103 256 268 263 261 258 258 259 265 274 277 278 276 273 272 272 273 273 272 272